Regional & State Weather Roundups


131 
ASUS43 KFSD 271310
RWRSD 
WEATHER ROUNDUP FOR SOUTH DAKOTA
NATIONAL WEATHER SERVICE SIOUX FALLS SD
800 AM CDT SUN MAY 27 2018
NOTE: "FAIR" INDICATES FEW OR NO CLOUDS BELOW 12,000 FEET WITH NO
SIGNIFICANT WEATHER AND/OR OBSTRUCTIONS TO VISIBILITY.
SDZ001>005-009-010-012>017-271400-
NORTHWEST AND NORTH CENTRAL SOUTH DAKOTA
  
CITY           SKY/WX    TMP DP  RH WIND       PRES   REMARKS
BUFFALO          N/A     62  53  72 NE14      29.77R                  
FAITH            N/A     69  58  67 NE25G37   29.77R                  
MOBRIDGE       CLOUDY    73  60  63 N13G22    29.72F                  
$$
 
SDZ012>016-024>037-041>051-057-063-072>074-271400-
SOUTHWEST AND SOUTH CENTRAL SOUTH DAKOTA
  
CITY           SKY/WX    TMP DP  RH WIND       PRES   REMARKS
RAPID CTY ARPT PTSUNNY   65  55  70 N28G46    29.82S                  
PIERRE         PTSUNNY   70  60  70 SE9       29.71S                  
CUSTER         PTSUNNY   64  53  67 N17G30    29.94R                  
ELLSWORTH AFB  PTSUNNY   66  56  69 N30G40    29.82R                  
PHILIP         PTSUNNY   68  59  73 CALM      29.72S                  
PINE RIDGE     CLOUDY    71  54  54 W6        29.82R                  
SPEARFISH      FAIR      68  55  64 SE3       29.95S                  
WINNER         FAIR      74  57  55 S12       29.75R                  
$$
 
SDZ004>011-016>023-039-040-271400-
NORTHEAST SOUTH DAKOTA
  
CITY           SKY/WX    TMP DP  RH WIND       PRES   REMARKS
ABERDEEN       PTSUNNY   77  56  48 E9        29.77R                  
WATERTOWN      CLOUDY    71  54  54 S8        29.79S                  
BROOKINGS      CLOUDY    70  55  59 SE7       29.83R                  
SISSETON         N/A     67  62  84 VRB5      29.83S                  
$$
 
SDZ017-020-022-023-036>040-048>070-271400-
SOUTHEAST SOUTH DAKOTA
  
CITY           SKY/WX    TMP DP  RH WIND       PRES   REMARKS
SIOUX FALLS    CLOUDY    75  63  66 CALM      29.81R                  
HURON          CLOUDY    72  58  61 S8        29.76R                  
CHAMBERLAIN    CLOUDY    74  62  66 S10       29.75S                  
MITCHELL       PTSUNNY   73  62  68 SE6       29.78R                  
YANKTON        SUNNY     71  61  70 SE3       29.80R                  
$$
 
ABBREVIATIONS USED IN REMARKS
   TC - TEMPERATURE IN CELSIUS
  WCI - WIND CHILL INDEX
   HX - HEAT INDEX
  VSB - VISIBILITY
  

133 
ASUS43 KFSD 271310
RWRFSD
WEATHER ROUNDUP FOR SE SOUTH DAKOTA/SW MINNESOTA/NW IOWA
NATIONAL WEATHER SERVICE SIOUX FALLS SD
800 AM CDT SUN MAY 27 2018
NOTE: "FAIR" INDICATES FEW OR NO CLOUDS BELOW 12,000 FEET WITH NO
SIGNIFICANT WEATHER AND OR OBSTRUCTIONS TO VISIBILITY.
SDZ038>040-050-052>070-271400-
SOUTHEAST SOUTH DAKOTA
  
CITY           SKY/WX    TMP DP  RH WIND       PRES   REMARKS
BROOKINGS      CLOUDY    70  55  59 SE7       29.83R                  
CHAMBERLAIN    CLOUDY    74  62  66 S10       29.75S                  
HURON          CLOUDY    72  58  61 S8        29.76R                  
MADISON        FAIR      70  57  64 S8        29.83R                  
MITCHELL       PTSUNNY   73  62  68 SE6       29.78R                  
SIOUX FALLS    CLOUDY    75  63  66 CALM      29.81R                  
WINNER         FAIR      74  57  55 S12       29.75R                  
YANKTON        SUNNY     71  61  70 SE3       29.80R                  
$$
MNZ071-072-080-081-089-090-097-098-271400-
SOUTHWEST MINNESOTA
  
CITY           SKY/WX    TMP DP  RH WIND       PRES   REMARKS
FAIRMONT       MOSUNNY   77  59  53 S5        29.84R                  
JACKSON        CLOUDY    72  57  60 S5        29.86R                  
LUVERNE        CLOUDY    68  55  64 CALM      29.85R                  
MARSHALL       CLOUDY    75  55  49 S9        29.81R                  
MONTEVIDEO     CLOUDY    70  55  60 S6        29.81S                  
PIPESTONE      CLOUDY    75  54  46 S10       29.83S                  
REDWOOD FALLS  CLOUDY    69  61  75 CALM      29.82R                  
TRACY          PTSUNNY   78  53  41 S7        29.82R                  
WINDOM         CLOUDY    73  48  40 S3        29.84R                  
WORTHINGTON    CLOUDY    79  54  41 S7        29.85R                  
$$
IAZ001>003-012>014-020>022-031-032-NEZ013-014-SDZ071-271400-
NORTHWEST IOWA
  
CITY           SKY/WX    TMP DP  RH WIND       PRES   REMARKS
CHEROKEE       CLOUDY    68  65  89 CALM      29.83R                  
DENISON        SUNNY     72  61  68 MISG      29.86R                  
ESTHERVILLE    CLOUDY    70  59  68 S3        29.84R                  
ORANGE CITY    CLOUDY    75  55  50 CALM      29.83R                  
SHELDON        CLOUDY    77  54  44 SE5       29.82R                  
SIOUX CITY     SUNNY     72  61  68 E3        29.81R                  
SPENCER        CLOUDY    74  63  68 E3        29.84R                  
STORM LAKE     CLOUDY    79  54  41 CALM      29.84R                  
$$
 
ABBREVIATIONS USED IN REMARKS
   TC - TEMPERATURE IN CELSIUS
  WCI - WIND CHILL INDEX
   HX - HEAT INDEX
  VSB - VISIBILITY